[[{"header":{"parameterUnit":"m.s-1","parameterCategory":1,"la1":30.2991,"la2":30.254,"lo1":-89.0895,"lo2":-89.0444,"dy":0.0017,"dx":0.0017,"nx":28,"ny":28,"refTime":"2024-08-01T09:00:00:Z","depth":0,"parameterNumber":2,"parameterNumberName":"U-component_of_WINDS"},"data":[0,0,0,0,0,0,0,0,0,0,0,0,0,0,0,0,0,0,0,0,0,0,0,0,0,0,0,0,0,0,0,0,0,0,0,0,0,0,0,0,0,0,0,0,0,0,0,0,0,0,0,0,0,0,0,0,0,0,1.5376,1.5378,0,1.5531,1.5533,1.5534,1.5593,1.5593,1.5592,1.5592,1.575,1.5755,1.5759,0,0,0,0,0,0,0,0,0,0,0,0,0,1.5129,1.5134,1.5376,1.5378,1.538,1.5531,1.5533,1.5535,1.5593,1.5593,1.5592,1.5592,1.5749,1.5754,1.576,0,0,0,0,0,0,0,0,0,0,0,0,0,1.5255,1.5135,1.5376,1.5427,1.5433,1.553,1.5533,1.5535,1.5593,1.5593,1.5592,1.5591,1.5747,1.5753,1.576,1.5817,0,0,1.5782,1.5785,0,0,0,0,0,0,0,0,1.5248,1.5264,1.5418,1.5424,1.5431,1.5542,1.5504,1.563,1.5594,1.5533,1.5592,1.5591,1.5681,1.5694,1.5724,1.5825,1.5831,1.5782,1.5787,1.5789,1.5791,0,0,0,0,0,0,0,1.5239,1.5258,1.5437,1.542,1.5428,1.5442,1.5459,1.5528,1.5609,1.5538,1.5542,1.556,1.5685,1.5717,1.5728,1.5834,1.5782,1.5788,1.5793,1.5795,1.5987,1.5988,0,0,0,0,0,0,1.5222,1.525,1.5432,1.5442,1.5336,1.5447,1.5466,1.5507,1.5608,1.5623,1.556,1.5562,1.5706,1.572,1.5734,1.5807,1.5789,1.5796,1.58,1.5986,1.5987,1.5988,0,0,0,0,0,0,1.5217,1.5238,1.5426,1.5347,1.5373,1.5452,1.5497,1.551,1.5543,1.5625,1.564,1.5579,1.5706,1.5724,1.5796,1.5813,1.5799,1.5805,1.5985,1.5986,1.5988,1.5952,0,0,0,0,0,0,1.5209,1.5236,1.5258,1.5348,1.5376,1.5485,1.5498,1.5514,1.5555,1.5559,1.5647,1.5661,1.5707,1.5785,1.5803,1.5822,1.5811,1.5984,1.5986,1.5987,1.5952,1.5952,1.5952,0,0,0,0,0,1.52,1.5242,1.5259,1.5281,1.5407,1.5486,1.5503,1.5555,1.5556,1.5579,1.5632,1.5658,1.5808,1.5792,1.5812,1.5834,1.5983,1.5985,1.5987,1.5952,1.5952,1.5952,0,0,0,0,0,0,1.5153,1.5255,1.5275,1.5347,1.5408,1.5496,1.5527,1.5554,1.5615,1.5616,1.5678,1.5697,1.5763,1.5806,1.5786,1.5894,1.5897,1.5903,1.5863,1.5864,1.5864,1.5852,1.5817,0,0,0,0,0,1.5151,1.5208,1.5294,1.5349,1.5378,1.5447,1.5484,1.5519,1.5584,1.561,1.5668,1.573,1.5791,1.583,1.5891,1.5958,1.5978,1.5983,1.5983,1.5982,1.5987,1.6025,1.6028,1.5995,1.5995,1.5995,0,0,1.5148,1.5211,1.5243,1.5341,1.5392,1.5448,1.5468,1.5528,1.557,1.5619,1.569,1.5734,1.5807,1.5876,1.591,1.5914,1.6,1.5985,1.5984,1.5989,1.6027,1.603,1.6033,1.5996,1.5996,1.5996,0,0,1.5171,1.5224,1.5275,1.5326,1.5402,1.5448,1.546,1.5544,1.5576,1.5648,1.5685,1.5736,1.584,1.589,1.5929,1.5969,1.5995,1.5987,1.5987,1.6023,1.6025,1.6028,1.6041,1.6045,1.5991,1.5991,1.5991,0,1.5157,1.5244,1.5298,1.5355,1.5397,1.5444,1.5495,1.5542,1.5634,1.5662,1.5665,1.5795,1.5848,1.5929,1.5938,1.5969,1.5984,1.5978,1.6021,1.6024,1.6027,1.604,1.6045,1.599,1.599,1.599,1.599,0,1.5222,1.5282,1.5314,1.5402,1.5447,1.5501,1.5563,1.5603,1.5633,1.5678,1.575,1.5814,1.5888,1.591,1.5941,1.5995,1.5995,1.6009,1.6013,1.6028,1.6041,1.6047,1.5988,1.5988,1.5989,1.5989,0,0,1.522,1.5337,1.5348,1.5387,1.5475,1.5522,1.5577,1.5649,1.5681,1.5743,1.5791,1.5877,1.589,1.5934,1.5971,1.6002,1.6028,1.6012,1.6014,1.6012,1.6091,1.608,1.6085,1.6045,1.6046,1.6047,1.6084,0,1.5254,1.5356,1.5406,1.5486,1.5541,1.5585,1.5633,1.5691,1.5734,1.5787,1.5834,1.5894,1.5906,1.5933,1.5966,1.6018,1.6044,1.6016,1.609,1.6092,1.607,1.6092,1.6081,1.6113,1.609,1.6091,1.6092,0,1.5307,1.5368,1.5453,1.5533,1.5558,1.56,1.567,1.572,1.5786,1.5815,1.5863,1.5899,1.5958,1.5958,1.604,1.602,1.6053,1.6082,1.6085,1.6094,1.6092,1.6101,1.6124,1.6129,1.6101,1.61,1.6099,0,1.5296,1.5399,1.5464,1.5496,1.5591,1.562,1.566,1.5726,1.5766,1.5827,1.5853,1.5919,1.5956,1.6006,1.6058,1.6054,1.6135,1.614,1.616,1.6159,1.6176,1.6174,1.6204,1.6197,1.6197,1.6197,1.6197,0,1.5328,1.5378,1.546,1.5499,1.5556,1.5613,1.5667,1.5711,1.5769,1.5817,1.586,1.5904,1.597,1.6022,1.6063,1.6124,1.6141,1.6165,1.6175,1.6161,1.6158,1.6184,1.6183,1.6198,1.6198,1.6198,1.6197,0,1.5326,1.5382,1.5455,1.5538,1.556,1.5599,1.567,1.5709,1.5753,1.5814,1.5831,1.5901,1.5964,1.6021,1.6105,1.6133,1.6195,1.6208,1.6172,1.6178,1.6195,1.6192,1.6243,1.6252,1.6238,1.6238,1.6238,0,1.5342,1.5382,1.5469,1.5504,1.5544,1.56,1.5641,1.5698,1.5738,1.5816,1.5846,1.5912,1.5969,1.6068,1.6126,1.619,1.6205,1.6218,1.6215,1.6199,1.6204,1.6201,1.6205,1.6217,1.6217,1.6217,1.6217,0,1.5365,1.5391,1.5448,1.5515,1.5562,1.5617,1.5674,1.57,1.5767,1.581,1.5875,1.5919,1.6004,1.6069,1.614,1.6181,1.621,1.6217,1.6225,1.6211,1.6189,1.6201,1.6171,1.6216,1.6216,1.6216,1.6216,1.6216,1.5373,1.541,1.5477,1.5538,1.5587,1.5638,1.5679,1.5728,1.5783,1.5857,1.5887,1.5953,1.6018,1.6115,1.6156,1.6208,1.6214,1.6226,1.6229,1.6231,1.6228,1.618,1.6222,1.6222,1.6222,1.6222,1.6222,0,1.5398,1.5443,1.5499,1.5576,1.5624,1.5647,1.571,1.5749,1.5806,1.5864,1.5918,1.5992,1.6055,1.6118,1.6184,1.6214,1.6228,1.6229,1.6227,1.6236,1.6219,1.6206,1.6216,1.6216,1.6216,1.6216,1.6216,1.6216,1.5416,1.5479,1.5513,1.56,1.5644,1.5709,1.5743,1.579,1.5837,1.5918,1.597,1.601,1.607,1.614,1.6199,1.6215,1.6238,1.6234,1.6255,1.6238,1.6238,1.6237,1.6225,1.6239,1.6239,1.6267,1.6267,1.6268]},{"header":{"parameterUnit":"m.s-1","parameterCategory":1,"la1":30.2991,"la2":30.254,"lo1":-89.0895,"lo2":-89.0444,"dy":0.0017,"dx":0.0017,"nx":28,"ny":28,"refTime":"2024-08-01T09:00:00:Z","depth":0,"parameterNumber":3,"parameterNumberName":"V-component_of_WINDS"},"data":[0,0,0,0,0,0,0,0,0,0,0,0,0,0,0,0,0,0,0,0,0,0,0,0,0,0,0,0,0,0,0,0,0,0,0,0,0,0,0,0,0,0,0,0,0,0,0,0,0,0,0,0,0,0,0,0,0,0,3.2245,3.2244,0,3.2201,3.22,3.22,3.214,3.2139,3.2138,3.2138,3.2092,3.2092,3.2091,0,0,0,0,0,0,0,0,0,0,0,0,0,3.2276,3.2276,3.2245,3.2244,3.2244,3.2201,3.22,3.22,3.2141,3.2139,3.2138,3.2137,3.2092,3.2092,3.2091,0,0,0,0,0,0,0,0,0,0,0,0,0,3.2251,3.2276,3.2245,3.2209,3.2205,3.2201,3.22,3.22,3.2141,3.2139,3.2138,3.2136,3.2092,3.2092,3.2091,3.2119,0,0,3.209,3.209,0,0,0,0,0,0,0,0,3.2252,3.225,3.2215,3.2211,3.2207,3.2175,3.2195,3.2172,3.2141,3.2165,3.2137,3.2136,3.2121,3.2118,3.2113,3.2117,3.2115,3.209,3.209,3.209,3.209,0,0,0,0,0,0,0,3.2254,3.2251,3.2227,3.2214,3.221,3.2195,3.219,3.219,3.2152,3.2163,3.2159,3.2154,3.2118,3.2113,3.2111,3.2114,3.209,3.209,3.2089,3.2089,3.2136,3.2138,0,0,0,0,0,0,3.2261,3.2253,3.2229,3.2226,3.2227,3.2196,3.219,3.2187,3.2152,3.2145,3.2156,3.2152,3.2115,3.2112,3.211,3.2138,3.209,3.2089,3.2089,3.2135,3.2137,3.2138,0,0,0,0,0,0,3.2262,3.226,3.2231,3.2238,3.2233,3.2197,3.2194,3.2187,3.2182,3.2146,3.2139,3.2158,3.2114,3.211,3.2117,3.2136,3.2089,3.2089,3.2133,3.2136,3.2138,3.2197,0,0,0,0,0,0,3.2263,3.226,3.2271,3.2239,3.2233,3.2239,3.2195,3.2187,3.2181,3.2176,3.2146,3.214,3.2112,3.2118,3.2116,3.2134,3.2088,3.2131,3.2134,3.2137,3.2193,3.2201,3.2207,0,0,0,0,0,3.2265,3.2289,3.2271,3.2269,3.2245,3.224,3.2237,3.2205,3.2183,3.2193,3.217,3.2141,3.2134,3.2119,3.2117,3.2135,3.213,3.2133,3.2137,3.219,3.2199,3.2207,0,0,0,0,0,0,3.2324,3.2284,3.2264,3.2279,3.2264,3.223,3.2241,3.2216,3.2206,3.2201,3.2162,3.2155,3.2167,3.2151,3.2135,3.2159,3.2128,3.2131,3.2169,3.2177,3.2184,3.2188,3.2088,0,0,0,0,0,3.2339,3.2338,3.2303,3.232,3.2313,3.2279,3.2275,3.2252,3.2234,3.2227,3.2204,3.2188,3.2182,3.2179,3.2171,3.219,3.2183,3.2202,3.2209,3.2216,3.2219,3.2226,3.2234,3.215,3.215,3.215,0,0,3.2369,3.2347,3.2349,3.2331,3.2316,3.2316,3.2274,3.2275,3.2274,3.2227,3.2232,3.2215,3.2194,3.2206,3.2211,3.2194,3.224,3.222,3.2225,3.2225,3.2231,3.2239,3.2246,3.2152,3.2151,3.2151,0,0,3.2424,3.2408,3.2419,3.2405,3.2383,3.236,3.2363,3.2334,3.2321,3.2325,3.2289,3.2287,3.2278,3.2264,3.2256,3.2306,3.2279,3.2305,3.2342,3.2351,3.2357,3.2363,3.238,3.2387,3.2308,3.2308,3.2308,0,3.2464,3.2463,3.2429,3.2432,3.2425,3.2383,3.2394,3.2382,3.2358,3.2354,3.2336,3.2323,3.2306,3.2314,3.2326,3.2321,3.2323,3.2308,3.2359,3.2365,3.2369,3.2385,3.2392,3.2311,3.2311,3.2311,3.231,0,3.2513,3.2513,3.2525,3.2504,3.2498,3.2505,3.2472,3.247,3.2447,3.2426,3.243,3.2408,3.2395,3.2396,3.2373,3.2401,3.2391,3.2367,3.2334,3.2381,3.2395,3.2401,3.2316,3.2315,3.2314,3.2313,0,0,3.2604,3.2564,3.2569,3.2558,3.2531,3.2529,3.2535,3.2522,3.2521,3.2507,3.251,3.2503,3.248,3.2471,3.2446,3.2454,3.2494,3.2428,3.2427,3.2441,3.2521,3.2539,3.2547,3.2476,3.2477,3.2477,3.2523,0,3.2653,3.2661,3.263,3.2645,3.2643,3.2603,3.2607,3.2591,3.2571,3.2567,3.2545,3.254,3.2511,3.2505,3.2511,3.2488,3.2509,3.2484,3.2477,3.2477,3.2483,3.2554,3.2573,3.2617,3.2528,3.2529,3.253,0,3.2712,3.27,3.2715,3.2687,3.2685,3.269,3.2675,3.2672,3.2652,3.2637,3.2627,3.2599,3.2602,3.2571,3.2574,3.2557,3.2553,3.2541,3.2542,3.2539,3.2506,3.2553,3.2631,3.2637,3.2538,3.2537,3.2537,0,3.2775,3.2764,3.2771,3.2764,3.2731,3.2735,3.2721,3.27,3.2694,3.2682,3.2677,3.2665,3.2659,3.265,3.2619,3.26,3.2625,3.2592,3.2612,3.2613,3.2618,3.2618,3.2696,3.2617,3.2617,3.2617,3.2616,0,3.2833,3.2844,3.2799,3.2804,3.2814,3.2779,3.279,3.2772,3.2753,3.2753,3.2717,3.2718,3.2678,3.2673,3.2649,3.2654,3.2652,3.2639,3.2633,3.2642,3.2644,3.2638,3.2634,3.2618,3.2618,3.2618,3.2617,0,3.2906,3.2877,3.2882,3.285,3.2842,3.2851,3.2824,3.2826,3.2805,3.2805,3.2803,3.2769,3.2762,3.273,3.2716,3.27,3.2713,3.27,3.272,3.2715,3.2737,3.2735,3.2813,3.2821,3.2738,3.2738,3.2739,0,3.2944,3.2951,3.2921,3.2918,3.2906,3.2903,3.2897,3.2862,3.2857,3.2835,3.284,3.283,3.2821,3.2811,3.2785,3.2773,3.276,3.2788,3.2758,3.2767,3.2759,3.2759,3.2759,3.2794,3.2795,3.2796,3.2797,0,3.3015,3.3,3.2993,3.2981,3.2975,3.2964,3.2951,3.2951,3.2912,3.2908,3.2901,3.2893,3.2879,3.2869,3.2853,3.2838,3.2811,3.2806,3.281,3.282,3.283,3.2824,3.2736,3.2805,3.2804,3.2803,3.2803,3.2803,3.3071,3.3075,3.3054,3.3048,3.3034,3.3022,3.3023,3.3001,3.2995,3.2981,3.296,3.2956,3.2935,3.2911,3.2898,3.2893,3.2878,3.2884,3.2885,3.2887,3.2891,3.2832,3.289,3.289,3.289,3.289,3.2889,0,3.314,3.3124,3.3119,3.3101,3.3096,3.3071,3.3055,3.3051,3.3048,3.3031,3.3023,3.3014,3.3004,3.2977,3.2965,3.2966,3.2953,3.2964,3.2963,3.296,3.2906,3.2904,3.2975,3.2975,3.2975,3.2975,3.2975,3.2975,3.3175,3.318,3.3163,3.3162,3.3146,3.3141,3.3134,3.3123,3.3109,3.3101,3.3094,3.3076,3.3055,3.3041,3.3031,3.3023,3.3019,3.3034,3.3022,3.2972,3.2964,3.2956,3.2954,3.3034,3.3034,3.3076,3.3077,3.3077]}]]